TimeEDT,TemperatureF,Dew PointF,Humidity,Sea Level PressureIn,VisibilityMPH,Wind Direction,Wind SpeedMPH,Gust SpeedMPH,PrecipitationIn,Events,Conditions,WindDirDegrees,DateUTC
12:53 AM,39.9,30.0,68,30.13,10.0,South,6.9,-,N/A,,Clear,180,2012-10-09 04:53:00
1:53 AM,37.9,28.9,70,30.13,10.0,South,6.9,-,N/A,,Clear,190,2012-10-09 05:53:00
2:53 AM,37.0,28.9,73,30.12,10.0,South,6.9,-,N/A,,Clear,180,2012-10-09 06:53:00
4:53 AM,35.1,28.0,76,30.11,10.0,SSW,4.6,-,N/A,,Clear,200,2012-10-09 08:53:00
5:53 AM,37.0,30.0,76,30.11,10.0,SSW,3.5,-,N/A,,Clear,200,2012-10-09 09:53:00
6:53 AM,36.0,30.0,79,30.12,10.0,SSW,5.8,-,N/A,,Clear,200,2012-10-09 10:53:00
7:53 AM,37.9,33.1,83,30.12,5.0,South,8.1,-,0.00,Snow,Light Snow,190,2012-10-09 11:53:00
8:53 AM,43.0,36.0,76,30.11,7.0,South,8.1,-,0.00,,Clear,180,2012-10-09 12:53:00
9:53 AM,48.9,37.9,66,30.11,10.0,SSW,10.4,-,N/A,,Clear,200,2012-10-09 13:53:00
10:53 AM,55.0,37.0,51,30.09,10.0,South,12.7,-,N/A,,Clear,190,2012-10-09 14:53:00
11:53 AM,59.0,36.0,42,30.06,10.0,SSW,15.0,24.2,N/A,,Clear,200,2012-10-09 15:53:00
12:53 PM,62.1,37.0,39,30.04,10.0,SSW,18.4,24.2,N/A,,Clear,200,2012-10-09 16:53:00
1:53 PM,64.0,36.0,35,30.00,10.0,SSW,18.4,28.8,N/A,,Clear,210,2012-10-09 17:53:00
2:53 PM,64.0,35.1,34,29.98,10.0,South,18.4,25.3,N/A,,Clear,190,2012-10-09 18:53:00
3:53 PM,64.0,35.1,34,29.96,10.0,SSW,18.4,29.9,N/A,,Clear,200,2012-10-09 19:53:00
4:53 PM,64.9,35.1,33,29.93,10.0,SSW,15.0,25.3,N/A,,Clear,200,2012-10-09 20:53:00
5:53 PM,63.0,33.1,33,29.92,10.0,South,16.1,26.5,N/A,,Clear,190,2012-10-09 21:53:00
6:53 PM,60.1,34.0,38,29.92,10.0,South,10.4,-,N/A,,Clear,190,2012-10-09 22:53:00
7:53 PM,57.9,35.1,42,29.91,10.0,South,10.4,-,N/A,,Clear,170,2012-10-09 23:53:00
8:53 PM,54.0,36.0,51,29.91,10.0,South,8.1,-,N/A,,Clear,180,2012-10-10 00:53:00
9:53 PM,55.9,37.0,49,29.90,10.0,South,11.5,-,N/A,,Clear,180,2012-10-10 01:53:00
10:53 PM,55.0,37.0,51,29.87,10.0,South,12.7,-,N/A,,Clear,180,2012-10-10 02:53:00
11:53 PM,55.0,37.9,53,29.85,10.0,South,11.5,-,N/A,,Clear,190,2012-10-10 03:53:00